Weather History for KCKC - March, 2013

Change the Weather History Date:

Saturday, March 2, 2013

  Actual Average Record
Temperature  
Mean Temperature 8 °F -  
Max Temperature 21 °F 21 °F 39 °F (2001)
Min Temperature -5 °F 6 °F -25 °F (2014)
Degree Days  
Heating Degree Days 57    
Moisture  
Dew Point -13 °F    
Average Humidity 42    
Maximum Humidity 78    
Minimum Humidity 11    
Precipitation  
Precipitation 0.00 in - - ()
Sea Level Pressure  
Sea Level Pressure 30.21 in    
Wind  
Wind Speed 5 mph (North)    
Max Wind Speed 8 mph    
Max Gust Speed -    
Visibility 10 miles    
Events      
Averages and records for this station are not official NWS values.
T = Trace of Precipitation, MM = Missing Value Source: NWS Daily Summary

Daily Weather History Graph

Daily Weather History Graph

Search for Another Location

Airport or City:

Trip Planner

Search our weather history database for the weather conditions in past years. The results will help you decide how hot, cold, wet, or windy it might be!

Date:

Astronomy

Mar. 02, 2013 Rise Set
Actual Time 6:39 AM CST 5:48 PM CST
Civil Twilight 6:08 AM CST 6:19 PM CST
Nautical Twilight 5:33 AM CST 6:54 PM CST
Astronomical Twilight 4:57 AM CST 7:30 PM CST
Moon 11:56 PM CST (3/2) 8:42 AM CST (3/2)
Length of Visible Light 12h 10m
Length of Day
11h 08m
Waning Gibbous, 74% of the Moon is Illuminated
Mar 2
Waning Gibbous
Mar 4
Last Quarter
Mar 11
New
Mar 19
First Quarter
Mar 27
Full

Hourly Weather History & Observations

Time (CST) Temp. Windchill Dew Point Humidity Pressure Visibility Wind Dir Wind Speed Gust Speed Precip Events Conditions
12:13 AM 5.0 °F -8.1 °F -18.4 °F 33% 30.28 in 10.0 mi North 8.1 mph - N/A   Clear
12:34 AM 3.2 °F -10.3 °F -18.4 °F 36% 30.28 in 10.0 mi North 8.1 mph - N/A   Clear
12:53 AM 3.2 °F -7.8 °F -18.4 °F 36% 30.28 in 10.0 mi North 5.8 mph - N/A   Clear
1:14 AM 3.2 °F -9.1 °F -18.4 °F 36% 30.27 in 10.0 mi North 6.9 mph - N/A   Scattered Clouds
1:34 AM 3.2 °F -10.3 °F -18.4 °F 36% 30.27 in 10.0 mi North 8.1 mph - N/A   Clear
1:53 AM 3.2 °F -9.1 °F -18.4 °F 36% 30.27 in 10.0 mi North 6.9 mph - N/A   Clear
2:13 AM 3.2 °F -9.1 °F -18.4 °F 36% 30.26 in 10.0 mi North 6.9 mph - N/A   Clear
2:34 AM 1.4 °F -9.9 °F -18.4 °F 39% 30.26 in 10.0 mi North 5.8 mph - N/A   Clear
2:53 AM 1.4 °F -9.9 °F -18.4 °F 39% 30.26 in 10.0 mi North 5.8 mph - N/A   Clear
3:13 AM 1.4 °F -8.3 °F -18.4 °F 39% 30.25 in 10.0 mi North 4.6 mph - N/A   Clear
3:34 AM 1.4 °F -11.3 °F -18.4 °F 39% 30.25 in 10.0 mi North 6.9 mph - N/A   Clear
3:53 AM 1.4 °F -9.9 °F -18.4 °F 39% 30.25 in 10.0 mi NNW 5.8 mph - N/A   Clear
4:13 AM -0.4 °F -10.4 °F -18.4 °F 43% 30.25 in 10.0 mi NNW 4.6 mph - N/A   Clear
4:34 AM -2.2 °F -10.4 °F -18.4 °F 46% 30.25 in 10.0 mi North 3.5 mph - N/A   Clear
5:14 AM -2.2 °F -10.4 °F -20.2 °F 42% 30.26 in 10.0 mi NW 3.5 mph - N/A   Clear
5:33 AM -2.2 °F -12.5 °F -20.2 °F 42% 30.26 in 10.0 mi NNW 4.6 mph - N/A   Clear
5:54 AM -4.0 °F -16.3 °F -20.2 °F 46% 30.26 in 10.0 mi NNW 5.8 mph - N/A   Clear
6:13 AM -5.8 °F -16.7 °F -20.2 °F 50% 30.26 in 10.0 mi NNW 4.6 mph - N/A   Clear
6:33 AM -5.8 °F -19.9 °F -20.2 °F 50% 30.26 in 10.0 mi NNW 6.9 mph - N/A   Clear
6:54 AM -5.8 °F -21.2 °F -20.2 °F 50% 30.26 in 10.0 mi NW 8.1 mph - N/A   Clear
7:14 AM -4.0 °F -17.8 °F -20.2 °F 46% 30.26 in 10.0 mi NNW 6.9 mph - N/A   Clear
7:33 AM -2.2 °F -14.2 °F -20.2 °F 42% 30.25 in 10.0 mi NNW 5.8 mph - N/A   Clear
7:53 AM -0.4 °F -12.0 °F -20.2 °F 39% 30.25 in 10.0 mi NNW 5.8 mph - N/A   Clear
8:14 AM 3.2 °F -7.8 °F -20.2 °F 33% 30.25 in 10.0 mi NNW 5.8 mph - N/A   Clear
8:33 AM 6.8 °F -4.8 °F -20.2 °F 28% 30.25 in 10.0 mi North 6.9 mph - N/A   Clear
8:53 AM 8.6 °F 0.1 °F -20.2 °F 26% 30.25 in 10.0 mi North 4.6 mph - N/A   Clear
9:14 AM 10.4 °F - -20.2 °F 24% 30.25 in 10.0 mi Calm Calm - N/A   Clear
9:33 AM 12.2 °F - -23.8 °F 19% 30.24 in 10.0 mi Calm Calm - N/A   Clear
9:53 AM 14.0 °F - -20.2 °F 21% 30.23 in 10.0 mi Calm Calm - N/A   Clear
10:14 AM 15.8 °F - -23.8 °F 16% 30.23 in 10.0 mi Calm Calm - N/A   Clear
10:33 AM 15.8 °F 8.6 °F -25.6 °F 14% 30.23 in 10.0 mi ENE 4.6 mph - N/A   Clear
10:53 AM 17.6 °F - -29.2 °F 11% 30.23 in 10.0 mi Calm Calm - N/A   Clear
11:14 AM 17.6 °F - -27.4 °F 12% 30.23 in 10.0 mi Calm Calm - N/A   Clear
11:33 AM 19.4 °F 14.3 °F -22.0 °F 15% 30.22 in 10.0 mi NE 3.5 mph - N/A   Clear
11:53 AM 19.4 °F - -23.8 °F 14% 30.21 in 10.0 mi Calm Calm - N/A   Clear
12:14 PM 19.4 °F 12.8 °F -11.2 °F 25% 30.21 in 10.0 mi SE 4.6 mph - N/A   Clear
12:33 PM 21.2 °F 13.6 °F -11.2 °F 24% 30.20 in 10.0 mi South 5.8 mph - N/A   Clear
12:53 PM 19.4 °F 9.5 °F -9.4 °F 28% 30.19 in 10.0 mi SE 8.1 mph - N/A   Clear
1:13 PM 19.4 °F 11.5 °F -9.4 °F 28% 30.19 in 10.0 mi SE 5.8 mph - N/A   Clear
1:34 PM 19.4 °F 10.4 °F -7.6 °F 30% 30.19 in 10.0 mi SE 6.9 mph - N/A   Clear
1:53 PM 19.4 °F 11.5 °F -7.6 °F 30% 30.18 in 10.0 mi SSE 5.8 mph - N/A   Clear
2:14 PM 19.4 °F 11.5 °F -7.6 °F 30% 30.18 in 10.0 mi SE 5.8 mph - N/A   Clear
2:33 PM 19.4 °F 11.5 °F -7.6 °F 30% 30.18 in 10.0 mi SSE 5.8 mph - N/A   Clear
2:54 PM 19.4 °F 11.5 °F -7.6 °F 30% 30.18 in 10.0 mi SSE 5.8 mph - N/A   Clear
3:13 PM 19.4 °F 12.8 °F -5.8 °F 33% 30.18 in 10.0 mi SSE 4.6 mph - N/A   Clear
3:34 PM 17.6 °F 9.3 °F -4.0 °F 38% 30.18 in 10.0 mi SE 5.8 mph - N/A   Clear
3:54 PM 17.6 °F 9.3 °F -2.2 °F 42% 30.18 in 10.0 mi SSE 5.8 mph - N/A   Clear
4:13 PM 15.8 °F 10.2 °F -2.2 °F 45% 30.18 in 10.0 mi SSE 3.5 mph - N/A   Clear
4:34 PM 15.8 °F - -2.2 °F 45% 30.17 in 10.0 mi Calm Calm - N/A   Clear
4:53 PM 15.8 °F - -2.2 °F 45% 30.17 in 10.0 mi Calm Calm - N/A   Clear
5:14 PM 14.0 °F - -2.2 °F 49% 30.17 in 10.0 mi Calm Calm - N/A   Clear
5:34 PM 12.2 °F - -2.2 °F 53% 30.17 in 10.0 mi Calm Calm - N/A   Clear
5:53 PM 12.2 °F - -2.2 °F 53% 30.17 in 10.0 mi Calm Calm - N/A   Clear
6:13 PM 12.2 °F - -2.2 °F 53% 30.16 in 10.0 mi Calm Calm - N/A   Scattered Clouds
6:33 PM 10.4 °F - -2.2 °F 57% 30.16 in 10.0 mi Calm Calm - N/A   Scattered Clouds
6:54 PM 10.4 °F - -2.2 °F 57% 30.16 in 10.0 mi Calm Calm - N/A   Scattered Clouds
7:14 PM 10.4 °F - -2.2 °F 57% 30.16 in 10.0 mi Calm Calm - N/A   Scattered Clouds
7:34 PM 8.6 °F - -4.0 °F 57% 30.15 in 10.0 mi Calm Calm - N/A   Clear
7:54 PM 8.6 °F - -4.0 °F 57% 30.15 in 10.0 mi Calm Calm - N/A   Scattered Clouds
8:13 PM 8.6 °F 2.0 °F -4.0 °F 57% 30.15 in 10.0 mi West 3.5 mph - N/A   Clear
8:33 PM 3.2 °F - -5.8 °F 66% 30.14 in 10.0 mi Calm Calm - N/A   Clear
8:53 PM 5.0 °F - -4.0 °F 66% 30.15 in 10.0 mi Calm Calm - N/A   Clear
9:13 PM 3.2 °F - -5.8 °F 66% 30.14 in 10.0 mi Calm Calm - N/A   Scattered Clouds
9:33 PM 1.4 °F - -5.8 °F 72% 30.14 in 10.0 mi Calm Calm - N/A   Clear
9:54 PM 1.4 °F - -7.6 °F 66% 30.13 in 10.0 mi Calm Calm - N/A   Clear
10:13 PM 1.4 °F - -7.6 °F 66% 30.13 in 10.0 mi Calm Calm - N/A   Clear
10:33 PM 1.4 °F - -5.8 °F 72% 30.12 in 10.0 mi Calm Calm - N/A   Clear
10:54 PM -0.4 °F - -5.8 °F 78% 30.12 in 10.0 mi Calm Calm - N/A   Clear
11:13 PM -2.2 °F - -7.6 °F 78% 30.11 in 10.0 mi Calm Calm - N/A   Clear
11:33 PM -4.0 °F -14.6 °F -9.4 °F 78% 30.11 in 10.0 mi NNW 4.6 mph - N/A   Clear
11:54 PM -4.0 °F -16.3 °F -11.2 °F 71% 30.11 in 10.0 mi North 5.8 mph - N/A   Clear